Location: Alumbaugh
(37.5976°N, 83.9299°W)
Time: 17:21:28
(UTC+00:00)

BlueWalker 3 - Visible Passes

Search period start: 08 December 2022 00:00
Search period end: 18 December 2022 00:00
Orbit: 501 x 518 km, 53.2° (Epoch: 08 December)

Date Brightness Start Highest point End Pass type
(mag) Time Alt. Az. Time Alt. Az. Time Alt. Az.
08 Dec 3.8 00:06:48 10° NNW 00:08:30 20° N 00:08:30 20° N visible
08 Dec 3.1 23:48:21 10° NNW 23:51:16 27° NNE 23:51:16 27° NNE visible
09 Dec 2.9 23:29:54 10° NNW 23:33:23 30° NNE 23:34:13 27° ENE visible
10 Dec 5.0 01:08:30 10° WNW 01:09:06 13° WNW 01:09:06 13° WNW visible
10 Dec 2.8 23:11:27 10° NNW 23:14:58 31° NNE 23:17:27 16° E visible
11 Dec 4.1 00:50:08 10° WNW 00:52:21 25° W 00:52:21 25° W visible
11 Dec 2.7 22:52:59 10° NNW 22:56:34 33° NE 23:00:06 10° E visible
12 Dec 3.7 00:31:45 10° WNW 00:35:09 29° SW 00:36:00 26° SSW visible
13 Dec 4.0 00:13:23 10° WNW 00:16:41 27° SW 00:19:59 10° S visible
13 Dec 4.2 23:55:01 10° WNW 23:58:14 25° SW 00:01:25 10° S visible
14 Dec 4.5 23:36:38 10° WNW 23:39:46 23° SW 23:42:51 10° S visible
15 Dec 4.8 23:18:16 10° WNW 23:21:17 22° SW 23:24:17 10° S visible
16 Dec 5.0 22:59:55 10° WNW 23:02:48 20° SW 23:05:41 10° S visible
